This demonstration page uses our WeatherBlox Daily Observations layout. Learn more.

Left ArrowRight Arrow

Hourly Observations for October 30, 2016

Temp ( °F °C ) Dew Point ( °F °C ) Humidity (%) Winds ( mph kmh ) Pressure ( in mb ) Visibility ( mi km ) Precip ( " mm )
12:15 am 00:15 Clear 64 18 55 13 73 73 N N/A 30.03 1017 10 16 N/A
12:35 am 00:35 Clear 63 17 55 13 77 77 N N/A 30.03 1017 10 16 N/A
1:15 am 01:15 Clear 61 16 55 13 83 83 SSW 9 15 30.00 1016 10 16 N/A
1:35 am 01:35 Clear 61 16 55 13 83 83 SSW 9 15 30.00 1016 10 16 N/A
1:55 am 01:55 Clear 61 16 55 13 83 83 SSW 9 15 30.00 1016 10 16 N/A
2:15 am 02:15 Clear 61 16 55 13 83 83 SSW 8 13 30.00 1016 10 16 N/A
2:35 am 02:35 Clear 61 16 55 13 83 83 S 3 6 30.00 1016 10 16 N/A
2:55 am 02:55 Clear 61 16 55 13 83 83 S 3 6 30.00 1016 10 16 N/A
3:15 am 03:15 Clear 59 15 55 13 88 88 N N/A 30.00 1016 10 16 N/A
3:35 am 03:35 Clear 59 15 55 13 88 88 N N/A 30.00 1016 10 16 N/A
3:55 am 03:55 Clear 59 15 55 13 88 88 E 5 7 30.00 1016 10 16 N/A
4:15 am 04:15 Clear 55 13 54 12 94 94 N N/A 30.00 1016 10 16 N/A
4:35 am 04:35 Clear 57 14 55 13 94 94 N N/A 30.00 1016 10 16 N/A
4:55 am 04:55 Clear 55 13 54 12 94 94 N N/A 30.00 1016 10 16 N/A
5:15 am 05:15 Clear 55 13 54 12 94 94 N N/A 30.00 1016 10 16 N/A
5:35 am 05:35 Clear 55 13 54 12 94 94 N N/A 30.00 1016 10 16 N/A
5:55 am 05:55 Clear 55 13 54 12 94 94 SE 3 6 30.00 1016 10 16 N/A
6:15 am 06:15 Clear 57 14 55 13 94 94 N N/A 30.00 1016 10 16 N/A
6:35 am 06:35 Clear 59 15 55 13 88 88 SSE 5 7 30.00 1016 10 16 N/A
6:55 am 06:55 Clear 57 14 55 13 94 94 SSW 7 11 29.97 1015 10 16 N/A
7:15 am 07:15 Clear 55 13 55 13 100 100 SSW 8 13 29.97 1015 10 16 N/A
7:35 am 07:35 Clear 57 14 55 13 94 94 S 7 11 30.00 1016 10 16 N/A
7:55 am 07:55 Sunny 59 15 55 13 88 88 S 7 11 30.00 1016 10 16 N/A
8:15 am 08:15 Sunny 59 15 55 13 88 88 S 7 11 30.00 1016 10 16 N/A
8:35 am 08:35 Sunny 59 15 55 13 88 88 SW 7 11 30.00 1016 10 16 N/A
8:55 am 08:55 Sunny 59 15 55 13 88 88 SSW 10 17 30.00 1016 10 16 N/A
9:15 am 09:15 Sunny 61 16 55 13 83 83 SW 8 13 30.00 1016 10 16 N/A
9:35 am 09:35 Sunny 63 17 57 14 83 83 S 8 13 30.00 1016 10 16 N/A
9:55 am 09:55 Sunny 64 18 59 15 83 83 S 5 7 30.00 1016 10 16 N/A
10:15 am 10:15 Sunny 66 19 59 15 78 78 SSW 5 7 30.00 1016 10 16 N/A
10:35 am 10:35 Sunny 68 20 61 16 78 78 S 5 7 29.97 1015 10 16 N/A
10:55 am 10:55 Sunny 72 22 61 16 69 69 SSW 5 7 29.97 1015 10 16 N/A
11:15 am 11:15 Sunny 75 24 61 16 61 61 SSW 6 9 29.97 1015 10 16 N/A
11:35 am 11:35 Sunny 79 26 61 16 54 54 SSW 8 13 29.97 1015 10 16 N/A
11:55 am 11:55 Sunny 81 27 59 15 48 48 WSW 8 13 29.94 1014 10 16 N/A
12:15 pm 12:15 Sunny 81 27 59 15 48 48 SW 8 13 29.94 1014 10 16 N/A
12:35 pm 12:35 Sunny 81 27 59 15 48 48 WSW 9 15 29.94 1014 10 16 N/A
12:55 pm 12:55 Sunny 81 27 59 15 48 48 WSW 9 15 29.94 1014 10 16 N/A
1:15 pm 13:15 Sunny 82 28 59 15 45 45 WSW 12 19 29.91 1013 10 16 N/A
1:55 pm 13:55 Sunny 82 28 59 15 45 45 W 7 11 29.91 1013 10 16 N/A
2:15 pm 14:15 Sunny 82 28 59 15 45 45 WSW 9 15 29.88 1012 10 16 N/A
2:35 pm 14:35 Sunny 82 28 59 15 45 45 W 10 17 29.88 1012 10 16 N/A
2:55 pm 14:55 Sunny 82 28 57 14 42 42 W 13 20 29.88 1012 10 16 N/A
3:15 pm 15:15 Sunny 84 29 57 14 40 40 W 10 17 29.88 1012 10 16 N/A
3:35 pm 15:35 Sunny 82 28 57 14 42 42 WSW 10 17 29.88 1012 10 16 N/A
3:55 pm 15:55 Sunny 84 29 57 14 40 40 SW 10 17 29.83 1010 10 16 N/A
4:15 pm 16:15 Sunny 82 28 54 12 37 37 WSW 7 11 29.85 1011 10 16 N/A
4:35 pm 16:35 Sunny 82 28 55 13 40 40 SW 12 19 29.83 1010 10 16 N/A
4:55 pm 16:55 Sunny 82 28 55 13 40 40 SW 7 11 29.83 1010 10 16 N/A
5:15 pm 17:15 Sunny 82 28 54 12 37 37 WSW 8 13 29.85 1011 10 16 N/A
5:35 pm 17:35 Mostly Cloudy with Rain 79 26 57 14 48 48 NW 24 39 29.91 1013 7 11 N/A
5:55 pm 17:55 Cloudy 70 21 61 16 73 73 NNW 20 31 29.91 1013 10 16 N/A
6:15 pm 18:15 Cloudy with Light Rain 68 20 61 16 78 78 NNW 14 22 29.91 1013 10 16 N/A
6:35 pm 18:35 Cloudy 70 21 61 16 73 73 NW 13 20 29.94 1014 10 16 N/A
6:55 pm 18:55 Cloudy with Light Rain 66 19 63 17 88 88 WNW 14 22 29.94 1014 7 11 N/A
7:15 pm 19:15 Mostly Cloudy with Light Rain 66 19 63 17 88 88 WNW 9 15 29.94 1014 10 16 N/A
7:35 pm 19:35 Cloudy 66 19 63 17 88 88 WNW 6 9 29.94 1014 10 16 N/A
7:55 pm 19:55 Cloudy 64 18 63 17 94 94 WNW 12 19 29.97 1015 10 16 N/A
8:15 pm 20:15 Partly Cloudy 66 19 61 16 83 83 WNW 13 20 29.97 1015 10 16 N/A
8:35 pm 20:35 Partly Cloudy 66 19 61 16 83 83 WNW 9 15 29.97 1015 10 16 N/A
8:55 pm 20:55 Clear 64 18 61 16 88 88 NW 3 6 29.97 1015 10 16 N/A
9:15 pm 21:15 Mostly Cloudy 64 18 61 16 88 88 N N/A 29.97 1015 10 16 N/A
9:35 pm 21:35 Cloudy 64 18 61 16 88 88 N N/A 29.97 1015 10 16 N/A
9:55 pm 21:55 Cloudy 64 18 61 16 88 88 W 5 7 30.00 1016 10 16 N/A
10:15 pm 22:15 Cloudy 66 19 61 16 83 83 N 9 15 30.00 1016 10 16 N/A
10:35 pm 22:35 Cloudy 64 18 59 15 83 83 N 10 17 30.00 1016 10 16 N/A
10:55 pm 22:55 Cloudy 64 18 59 15 83 83 NNW 15 24 30.03 1017 10 16 N/A
11:15 pm 23:15 Cloudy 64 18 57 14 78 78 NNW 13 20 30.03 1017 10 16 N/A
11:35 pm 23:35 Cloudy 63 17 55 13 77 77 N 15 24 30.03 1017 10 16 N/A
11:55 pm 23:55 Partly Cloudy 61 16 54 12 77 77 N 15 24 30.03 1017 10 16 N/A

Powered by AerisWeather